Tracking 22879 objects as of 20-Apr-2021
HD Live streaming from Space Station
objects crossing your sky now

GLOBALSTAR M031

Track GLOBALSTAR M031 now!
10-day predictions
GLOBALSTAR M031 is classified as:


NORAD ID: 25946
Int'l Code: 1999-058D
Perigee: 1,616.0 km
Apogee: 1,618.5 km
Inclination: 52.0 °
Period: 118.4 minutes
Semi major axis: 7988 km
RCS: 2.5697 m2 (large)
Launch date: October 18, 1999
Source: Globalstar (GLOB)
Launch site: TYURATAM MISSILE AND SPACE COMPLEX (TTMTR)
aabbcc
Your satellite tracking list
Your tracking list is empty




NASA's NSSDC Master Catalog

Two Line Element Set (TLE):
1 25946U 99058D   21109.70749229 -.00000066  00000-0  24465-3 0  9997
2 25946  51.9995  21.8029 0001579   2.7594  32.2666 12.15969741979800
Source of the keplerian elements: AFSPC